Wind_Speed
14 13 12 12 12 11 9 8 7 7 6 5 3 2 3 4 5 5 6 5 6 6 7 7 7 7 8 8 8 8 8 7 8 9 9 9 9 9 8 8 8 8 8 8
16 13 13 14 15 13 11 9 8 8 8 7 6 4 4 4 4 4 5 5 5 6 6 7 7 7 8 8 8 8 7 7 7 8 8 8 9 10 10 9 9 9 9 9
17 15 15 15 15 15 13 11 10 10 10 10 8 6 5 4 4 4 4 5 5 5 5 6 7 7 8 9 9 8 7 7 8 9 8 9 9 10 10 10 10 10 10 9
20 18 17 17 16 15 14 12 12 12 12 12 11 9 6 7 6 5 5 5 5 5 5 6 6 8 8 9 10 9 8 8 9 9 9 9 9 10 10 10 10 10 9 9
20 19 18 17 16 16 15 15 15 14 14 14 13 12 9 8 7 6 6 6 6 5 5 6 7 9 10 11 11 10 9 9 9 10 10 10 10 10 11 11 10 10 9 10
21 20 20 19 17 17 17 17 17 16 16 15 14 15 11 9 8 7 7 8 7 7 7 7 8 9 10 12 12 12 10 10 10 11 11 11 11 11 12 11 11 11 10 11
22 21 21 20 20 19 19 19 19 19 18 18 16 16 14 12 10 9 9 9 9 9 9 9 10 10 11 12 12 12 11 12 12 12 12 12 12 12 12 12 13 12 12 12
22 22 21 22 21 20 20 21 21 21 21 19 19 18 15 14 13 11 11 12 11 10 10 11 11 12 12 12 13 14 14 15 15 14 14 14 13 14 13 13 14 14 14 14
22 21 22 22 22 22 22 21 21 22 22 21 21 19 17 16 16 14 13 13 13 12 12 13 12 13 13 14 15 15 17 17 17 16 16 16 16 15 15 15 15 16 16 16
22 21 22 22 22 23 23 22 22 23 23 23 21 20 18 17 16 15 15 15 14 14 14 14 14 14 14 15 16 17 18 18 17 18 18 19 19 17 16 17 17 17 18 18
23 22 22 23 24 24 24 24 23 23 23 23 23 21 19 18 17 16 15 16 16 16 16 16 15 15 16 17 18 19 19 18 18 19 20 20 20 18 18 18 18 18 19 19
22 23 23 23 24 24 25 25 24 24 24 24 23 22 19 19 19 18 17 17 17 17 18 18 18 18 19 19 19 19 19 19 20 21 21 22 21 20 20 20 20 20 20 21
23 23 23 23 24 24 25 25 25 25 25 25 25 23 21 21 20 19 19 19 19 19 20 19 19 19 21 20 19 20 20 20 21 21 22 23 22 22 22 22 22 22 22 22
24 24 24 23 23 24 25 25 26 26 26 27 26 24 21 21 21 21 20 20 21 21 21 21 22 22 22 21 21 22 22 22 22 22 22 22 22 22 23 24 24 24 23 23
25 25 24 24 24 25 25 26 26 27 27 27 26 25 24 23 24 23 23 22 23 23 23 23 23 23 24 23 23 24 24 24 23 23 23 23 23 24 25 25 25 24 24 24
26 26 26 26 25 25 26 27 26 26 27 28 28 28 27 27 25 24 24 24 24 25 26 26 25 25 25 25 24 24 25 25 25 25 25 25 25 26 27 27 26 25 25 25
29 28 28 27 26 26 27 27 27 27 28 29 29 29 29 29 27 27 27 26 27 27 28 28 28 27 27 27 26 26 26 26 26 26 26 26 27 27 28 28 26 26 26 27
30 29 28 28 27 28 26 27 27 28 29 30 31 30 30 30 29 29 28 28 28 28 28 30 30 29 29 29 29 28 27 28 28 27 27 27 27 28 28 28 28 28 28 29
31 30 30 30 30 30 29 28 28 29 30 30 31 31 31 31 31 29 28 28 28 28 29 30 30 30 30 29 28 28 28 28 28 28 29 29 29 29 29 30 30 29 30 31
32 32 33 33 32 32 30 29 28 29 30 30 31 31 30 30 30 29 28 28 29 29 29 29 29 29 29 30 30 30 29 29 29 29 30 30 30 31 31 32 32 32 32 32
32 33 33 33 33 32 30 30 29 29 28 28 29 29 29 29 30 30 30 29 29 30 30 30 30 31 31 31 31 32 30 31 31 30 31 32 32 32 33 33 34 33 33 32
31 32 33 33 34 33 31 30 30 30 29 29 29 30 30 31 31 31 31 30 30 30 31 32 32 32 32 32 32 32 31 32 32 32 32 32 32 33 33 33 34 34 33 33
30 31 32 33 34 34 32 32 32 31 31 31 31 31 31 31 31 32 32 32 31 30 31 32 33 33 34 34 33 32 32 32 32 32 32 32 32 33 33 33 34 34 34 34
30 31 32 32 33 34 34 34 34 34 33 31 31 31 31 31 31 31 31 31 31 31 32 33 33 33 33 33 32 32 33 33 32 31 32 33 33 33 33 34 34 34 34 34
30 30 31 32 32 33 34 34 33 33 33 33 31 30 30 31 31 31 32 32 31 31 32 32 32 32 32 32 32 33 33 34 33 33 34 34 34 34 34 34 34 34 34 34
31 31 32 32 33 33 33 33 33 33 32 32 32 31 31 31 31 30 30 31 32 31 31 31 32 31 31 32 33 33 34 34 34 35 35 35 35 34 34 34 33 34 35 35
Wind_Direction
218 219 223 226 228 232 236 241 244 246 245 250 274 317 344 356 2 16 21 25 23 19 17 15 10 4 1 2 3 6 6 1 359 358 356 357 357 358 357 359 357 353 351 350
223 226 226 228 229 230 232 241 246 250 252 256 260 282 306 323 336 354 3 10 7 8 5 7 6 359 355 352 350 356 352 345 345 346 346 350 351 352 353 353 352 346 341 339
228 228 226 230 233 233 238 246 249 252 252 259 263 264 278 289 309 322 328 347 350 351 353 351 352 346 348 349 347 345 345 336 336 339 341 343 341 341 341 343 344 340 339 337
228 227 229 232 234 237 241 246 250 251 252 257 267 269 274 281 288 302 307 326 328 326 337 345 347 340 332 331 337 337 340 336 334 331 329 332 331 330 332 332 333 331 331 333
228 230 232 234 236 240 244 245 250 252 256 261 268 274 275 282 286 292 297 306 316 315 311 318 327 331 331 328 326 329 332 328 329 332 328 325 324 325 324 323 322 321 321 323
228 230 232 234 237 241 243 245 248 253 259 263 267 271 275 279 282 285 287 291 299 301 298 297 306 316 326 329 324 320 324 321 322 324 322 324 322 320 318 316 315 317 315 314
230 232 233 235 237 240 243 246 249 253 258 263 266 269 275 276 273 277 280 284 289 296 296 298 300 306 316 325 328 324 320 316 316 316 314 314 313 312 313 312 310 310 310 310
231 232 234 235 238 240 243 248 253 258 263 264 265 268 274 274 274 274 278 281 282 287 291 296 302 308 312 315 314 314 310 311 312 310 307 305 304 305 306 306 307 307 306 305
231 232 233 236 240 241 245 250 254 259 261 261 264 267 269 275 275 274 277 279 281 285 290 293 298 305 305 304 305 308 306 305 306 309 307 301 299 299 301 303 305 305 305 303
231 232 231 234 238 242 245 249 252 255 261 263 265 269 274 276 278 276 275 277 279 282 290 293 292 298 299 301 303 305 306 304 302 304 305 302 299 297 299 301 302 301 301 302
234 235 233 234 237 241 244 246 250 255 260 265 266 268 274 276 276 275 276 278 280 283 289 292 291 292 295 298 299 302 303 302 302 303 304 302 300 296 299 300 301 301 300 299
236 237 236 235 237 239 243 245 249 254 261 264 266 268 271 274 274 275 276 279 282 285 288 290 292 295 297 296 297 300 301 301 302 303 301 301 299 298 301 303 302 301 300 299
238 239 239 238 239 241 242 246 250 255 260 264 267 271 273 273 274 276 277 279 282 285 288 289 292 296 298 298 301 301 300 302 302 301 299 298 297 300 299 299 298 298 298 298
241 242 243 243 243 245 246 248 251 254 259 263 266 271 272 273 275 276 275 276 279 282 285 288 290 292 293 294 298 300 301 302 301 299 298 298 297 300 300 299 298 296 295 295
243 246 248 247 246 247 249 251 253 256 259 262 265 268 271 274 276 276 276 276 278 281 282 285 288 288 288 290 293 297 299 299 298 299 301 303 300 300 300 298 297 297 294 294
244 247 250 250 251 252 251 252 254 257 260 263 266 268 271 274 274 274 274 277 280 281 281 282 283 285 288 290 291 293 295 296 297 298 300 302 302 302 300 298 294 294 294 294
245 249 251 253 253 253 252 253 255 257 261 263 266 269 270 272 273 273 274 276 278 279 279 280 282 284 287 288 289 290 292 293 294 296 298 299 302 301 300 297 295 294 293 294
246 249 252 253 254 255 256 255 256 258 260 263 266 267 269 271 273 274 275 276 277 279 279 281 284 285 289 290 288 290 290 291 291 291 294 298 300 300 301 299 296 296 294 295
245 249 252 254 256 258 258 259 261 262 263 264 266 268 270 271 273 274 275 274 275 278 280 283 285 287 288 289 289 290 291 290 289 290 293 294 296 297 299 300 300 299 296 296
245 249 253 256 259 261 263 264 265 265 266 267 269 270 271 272 273 272 271 272 274 276 279 282 285 287 288 289 287 288 289 290 290 290 290 292 293 295 297 297 298 297 296 295
246 249 252 256 260 263 265 267 268 270 270 270 272 272 272 273 273 273 273 275 276 277 280 283 284 286 288 288 287 289 289 289 288 289 290 290 291 293 295 295 296 296 295 294
247 248 251 254 258 262 266 268 270 272 272 273 273 274 275 274 275 274 276 277 277 278 280 283 284 285 287 287 286 288 289 289 288 288 290 291 292 292 293 294 295 295 294 293
250 249 251 254 258 262 264 267 270 271 274 275 276 276 277 276 275 276 276 277 279 280 282 283 285 285 285 286 288 287 286 287 286 287 289 291 293 293 293 294 295 294 293 292
252 252 253 255 257 260 263 266 268 270 273 274 276 277 276 277 276 276 276 277 278 280 281 282 283 284 284 285 288 287 288 288 286 287 289 291 293 292 293 293 293 293 291 291
252 254 255 256 259 262 263 266 268 270 271 274 275 277 277 276 277 277 276 276 278 280 282 282 283 284 285 285 287 288 289 289 289 290 291 291 291 291 292 292 292 292 292 291
252 255 257 258 259 261 265 267 268 269 272 273 275 276 276 276 277 277 278 278 279 281 283 283 284 285 285 285 286 287 288 288 289 289 290 290 291 291 291 292 292 292 291 291
Height
5903 5906 5907 5908 5909 5910 5910 5910 5911 5911 5911 5911 5912 5912 5912 5911 5911 5910 5910 5909 5908 5907 5906 5905 5904 5903 5902 5901 5900 5899 5897 5896 5895 5894 5893 5892 5891 5890 5888 5887 5885 5884 5883 5882
5902 5904 5906 5906 5907 5908 5909 5909 5910 5910 5910 5910 5910 5911 5911 5911 5911 5910 5910 5908 5908 5907 5906 5905 5904 5903 5901 5900 5899 5898 5897 5895 5894 5893 5892 5891 5890 5889 5887 5886 5884 5883 5882 5881
5899 5903 5903 5904 5905 5906 5907 5908 5909 5909 5909 5909 5909 5910 5910 5910 5910 5910 5909 5909 5908 5907 5905 5904 5904 5902 5901 5899 5898 5897 5895 5894 5893 5892 5891 5890 5889 5888 5886 5885 5884 5882 5881 5880
5896 5899 5900 5902 5903 5904 5906 5907 5907 5907 5907 5907 5908 5908 5909 5909 5909 5909 5908 5908 5907 5906 5905 5904 5903 5901 5899 5898 5897 5895 5894 5893 5892 5890 5889 5888 5887 5886 5885 5883 5882 5881 5879 5878
5894 5896 5898 5899 5901 5902 5904 5904 5905 5905 5905 5906 5906 5906 5909 5908 5908 5908 5907 5907 5906 5905 5904 5903 5902 5900 5898 5897 5895 5894 5893 5892 5890 5889 5888 5887 5885 5884 5883 5881 5880 5878 5877 5876
5891 5893 5895 5897 5898 5899 5901 5902 5902 5902 5903 5904 5904 5904 5906 5906 5906 5906 5906 5905 5904 5904 5902 5901 5900 5899 5897 5896 5894 5892 5891 5890 5888 5887 5886 5885 5883 5882 5880 5879 5877 5876 5875 5874
5887 5889 5891 5893 5895 5896 5897 5899 5899 5900 5900 5901 5902 5902 5904 5904 5904 5904 5904 5903 5902 5902 5900 5899 5898 5896 5895 5894 5892 5891 5889 5888 5887 5885 5883 5882 5880 5879 5878 5876 5875 5873 5872 5870
5883 5886 5888 5889 5891 5893 5893 5895 5896 5897 5897 5898 5899 5899 5901 5901 5901 5901 5901 5900 5900 5899 5898 5897 5896 5894 5893 5891 5890 5888 5886 5885 5884 5882 5880 5878 5877 5876 5875 5873 5872 5870 5868 5867
5879 5882 5884 5885 5887 5889 5890 5891 5892 5893 5893 5894 5894 5896 5897 5897 5898 5898 5898 5897 5897 5896 5895 5894 5893 5891 5890 5889 5887 5885 5883 5881 5880 5878 5877 5875 5874 5872 5871 5869 5868 5866 5864 5863
5874 5877 5879 5881 5883 5884 5886 5887 5888 5889 5889 5889 5891 5892 5893 5894 5894 5894 5894 5894 5893 5893 5892 5891 5890 5888 5887 5885 5884 5881 5879 5877 5876 5874 5873 5871 5870 5868 5866 5865 5863 5862 5860 5858
5870 5873 5875 5876 5878 5880 5882 5883 5883 5885 5885 5886 5886 5890 5890 5890 5890 5890 5890 5890 5889 5889 5888 5887 5886 5884 5883 5881 5880 5878 5875 5873 5872 5870 5869 5867 5865 5863 5862 5860 5858 5856 5855 5853
5866 5868 5870 5872 5873 5875 5876 5878 5880 5881 5881 5882 5882 5887 5886 5886 5886 5886 5886 5885 5885 5884 5884 5882 5881 5880 5878 5876 5875 5872 5871 5869 5867 5865 5864 5862 5860 5858 5856 5855 5853 5851 5850 5848
5861 5863 5865 5867 5870 5871 5871 5873 5875 5876 5877 5877 5878 5882 5881 5881 5881 5881 5881 5881 5880 5879 5879 5877 5876 5875 5873 5871 5870 5868 5866 5864 5863 5861 5858 5856 5855 5853 5851 5849 5847 5845 5843 5841
5857 5858 5861 5863 5864 5866 5867 5868 5870 5871 5871 5872 5873 5874 5875 5875 5876 5876 5876 5875 5875 5874 5873 5872 5871 5870 5868 5866 5865 5863 5861 5859 5858 5855 5853 5851 5849 5847 5845 5843 5841 5839 5837 5835
5851 5853 5855 5857 5859 5860 5862 5863 5864 5865 5866 5867 5868 5868 5869 5870 5870 5870 5870 5869 5869 5868 5867 5867 5865 5864 5862 5861 5859 5857 5855 5853 5851 5850 5848 5846 5843 5841 5839 5837 5834 5832 5830 5828
5845 5847 5849 5851 5853 5854 5856 5857 5858 5859 5860 5861 5861 5862 5863 5863 5863 5863 5863 5863 5862 5862 5861 5860 5858 5857 5856 5854 5852 5851 5849 5847 5845 5843 5842 5839 5837 5834 5832 5829 5827 5825 5823 5821
5840 5842 5844 5845 5847 5848 5850 5852 5853 5853 5854 5855 5855 5857 5856 5856 5856 5856 5856 5856 5855 5854 5853 5852 5851 5850 5848 5847 5845 5843 5842 5840 5838 5836 5834 5832 5830 5827 5824 5821 5819 5817 5815 5813
5833 5835 5837 5839 5841 5842 5846 5846 5846 5847 5848 5848 5848 5848 5848 5849 5849 5849 5849 5848 5848 5847 5846 5844 5842 5841 5840 5838 5837 5836 5834 5832 5830 5829 5827 5825 5823 5820 5817 5814 5812 5809 5808 5806
5827 5829 5830 5832 5833 5834 5838 5839 5839 5840 5840 5841 5841 5841 5841 5841 5841 5841 5841 5841 5840 5839 5838 5836 5834 5833 5832 5830 5829 5828 5826 5824 5823 5821 5819 5817 5815 5813 5810 5807 5804 5802 5800 5797
5820 5822 5824 5825 5826 5827 5831 5832 5832 5834 5833 5834 5833 5833 5833 5833 5834 5834 5833 5833 5832 5831 5830 5828 5827 5825 5824 5822 5821 5820 5818 5816 5814 5812 5811 5809 5807 5804 5802 5799 5796 5793 5791 5789
5813 5814 5816 5817 5818 5820 5823 5823 5825 5826 5827 5826 5825 5825 5825 5825 5825 5825 5824 5824 5824 5823 5822 5820 5819 5817 5816 5814 5813 5811 5809 5808 5806 5804 5802 5800 5798 5796 5793 5790 5788 5785 5782 5780
5805 5807 5809 5810 5812 5815 5815 5816 5817 5818 5818 5818 5818 5818 5817 5817 5816 5816 5816 5815 5815 5814 5813 5812 5810 5809 5807 5805 5804 5802 5801 5799 5797 5796 5794 5791 5789 5786 5784 5781 5778 5776 5773 5770
5797 5800 5801 5803 5806 5806 5807 5808 5809 5809 5810 5810 5810 5810 5809 5809 5808 5808 5808 5807 5806 5805 5804 5803 5801 5800 5798 5797 5795 5794 5792 5790 5789 5787 5784 5782 5779 5777 5774 5771 5769 5766 5763 5761
5790 5791 5793 5795 5796 5798 5799 5800 5800 5801 5801 5802 5802 5802 5801 5801 5800 5800 5799 5798 5797 5797 5795 5794 5792 5790 5789 5787 5785 5784 5782 5781 5779 5777 5775 5772 5770 5767 5765 5762 5759 5757 5754 5752
5782 5784 5785 5787 5788 5789 5790 5791 5792 5792 5793 5793 5793 5793 5792 5792 5792 5791 5790 5789 5788 5787 5786 5784 5783 5781 5779 5778 5776 5775 5773 5771 5769 5767 5765 5762 5760 5757 5755 5752 5750 5747 5745 5742
5774 5776 5777 5778 5780 5781 5782 5782 5783 5783 5784 5784 5784 5784 5784 5783 5783 5782 5781 5780 5779 5778 5777 5775 5773 5772 5770 5769 5767 5765 5763 5761 5759 5757 5755 5752 5750 5747 5745 5743 5740 5737 5735 5732